C/2018 L2 ( ATLAS )

Japanese version
Home page
Updated on September 22, 2018

---------------------------------------------------------------------

* Profile

Discovery Date June 6, 2018
Magnitude 15.6 mag
Discoverer Asteroid Terrestrial-impact Last Alert System (ATLAS) search program

* Pictures

* Orbital Elements

Epoch 2018 Nov. 18.0 TT = JDT 2458440.5
T 2018 Dec. 2.57160 TT                                  MPCW
q   1.7119982            (2000.0)            P               Q
z  +0.0039895      Peri.   56.21675     +0.03196666     +0.56731934
 +/-0.0000486      Node   243.01542     -0.89272044     +0.38644791
e   0.9931700      Incl.   67.42982     +0.44947563     +0.72719102
From 127 observations 2018 June 4-July 12, mean residual 0".4.

* Finding Charts

* Magnitudes Graph

        m1 = 9.0 + 5 log d + 10.0 log r

---------------------------------------------------------------------

The orbital elements are published on M.P.E.C. 2018-N82.
The charts are made with StellaNavigator Ver.10 (AstroArts).
The magnitudes graphs are made with Comet for Windows.

---------------------------------------------------------------------

Copyright(C) Seiichi Yoshida (comet@aerith.net). All rights reserved.